www.pogodaiklimat.ru

Погода и климат >> Архив погоды >> Украина >> Харьков


АРХИВ ПОГОДЫ в Харькове

Время (UTC), дата Ветер
(напр.,м/с)
 
Видим.   Явления Облачность Т
(С)
Тd
(С)
f
(%)
Тe
(С)
Тes
(С)
Комфортность P
(гПа)
Po
(гПа)
Тmin
(С)
Tmax
(С)
R
(мм)
R24
(мм)
S
(см)
03 21.06 ЮЗ 2 10 км 5/0
[Ac cast Ci fib]
+17.5 +13.5 77 +18 +19 по сезону 1006.0 988.0
06 21.06 З 5 10 км 6/4 1000 м
[Cb calv Ac trans]
+24.7 +13.7 50 +27 +29 жарко 1004.8 987.2 +16.4
09 21.06 З 6 10 км 6/3 1000 м
[Cu hum Ac trans Ci fib]
+25.8 +12.8 44 +28 +31 жарко 1004.6 987.1
12 21.06 З 6 10 км слабый ливневой дождь 8/6 1000 м
[Cb calv Ac trans]
+26.5 +13.8 46 +29 +30 жарко 1004.1 986.7
15 21.06 З 6 10 км {ливн. осадки} 5/4 1000 м
[Cu med, cong Ci fib]
+25.3 +8.6 35 +26 +27 жарко 1004.4 986.9
18 21.06 СЗ 4 10 км {ливн. осадки} 3/0
[Ac trans]
+20.7 +5.5 37 +22 +22 комфорт 1006.6 988.7 +26.9 0.0
21 21.06 СЗ 3 10 км ясно +16.7 +4.5 44 +17 +17 по сезону 1008.4 990.2
00 22.06 З 2 10 км ясно +12.7 +4.7 58 +12 +12 прохладно 1009.3 990.9
03 22.06 З 2 10 км 3/0
[Ci fib]
+13.4 +5.3 58 +13 +14 прохладно 1009.7 991.3
06 22.06 З 4 10 км 3/0
[Ac trans]
+18.8 +6.7 45 +19 +24 по сезону 1010.0 992.0 +10.7
09 22.06 З 5 10 км 6/4 1000 м
[Cu hum Ci fib]
+21.6 +6.3 37 +22 +27 комфорт 1010.3 992.4
12 22.06 З 4 10 км 6/6 1000 м
[Cu hum]
+22.8 +5.0 31 +23 +27 комфорт 1010.0 992.2
15 22.06 З 5 10 км 6/4 1000 м
[Sc diur, vesp Ci fib]
+22.6 +5.0 32 +23 +24 комфорт 1009.9 992.1
18 22.06 З 2 10 км 3/0
[Ci fib]
+19.2 +5.4 40 +20 +20 по сезону 1010.8 992.8 +23.6
21 22.06 ЮЗ 1 10 км ясно +15.4 +7.6 60 +16 +16 по сезону 1011.9 993.6
00 23.06 штиль 0 10 км 3/0
[Ac trans]
+12.0 +7.3 73 +12 +12 прохладно 1011.9 993.4
03 23.06 штиль 0 10 км 3/0
[Ac trans]
+12.6 +8.4 76 +12 +13 холодно 1011.3 992.9
06 23.06 ЮЗ 5 10 км 5/0
[Ci fib]
+21.0 +6.5 39 +22 +27 комфорт 1010.3 992.4 +10.8
09 23.06 З 4 10 км 8/3 1000 м
[Cu hum Cc]
+23.8 +5.8 31 +24 +31 комфорт 1009.6 991.9
12 23.06 ЮЗ 4 10 км 8/3 1000 м
[Cu hum Ac trans]
+24.8 +7.2 32 +25 +29 комфорт 1007.5 989.9
15 23.06 З 3 10 км 9/3 1000 м
[Sc Ac trans Ci fib]
+24.4 +7.4 34 +25 +26 комфорт 1006.0 988.4
18 23.06 ЮВ 2 10 км 10/4 1000 м
[Sc Ac und]
+21.4 +9.8 48 +23 +23 комфорт 1004.7 986.9 +25.7
21 23.06 З 2 7000 м слабый ливневой дождь 10/10 600 м
[Cb cap]
+16.7 +13.7 82 +17 +17 по сезону 1005.1 987.1
00 24.06 В 1 10 км в посл. час ливневой дождь 10/10 600 м
[Cb cap]
+15.2 +14.1 93 +16 +16 по сезону 1002.0 983.9
03 24.06 С 4 10 км слабый ливневой дождь 10/10 150 м
[Cb cap]
+14.4 +13.5 94 +13 +13 прохладно 1002.8 984.7
06 24.06 С 4 10 км {ливн. осадки} 9/9 330 м
[Sc]
+16.0 +13.0 82 +15 +16 холодно 1004.8 986.7 +14.4 8
09 24.06 СЗ 4 10 км 9/6 600 м
[Cb calv Ac trans]
+19.7 +12.9 65 +21 +24 комфорт 1006.9 989.0
12 24.06 СЗ 3 10 км 8/6 1000 м
[Cu med, cong Ci fib]
+21.7 +10.7 50 +24 +28 комфорт 1007.2 989.4
15 24.06 С 3 10 км 9/3 1000 м
[Cu med, cong Ac trans Ci]
+21.2 +10.2 49 +23 +24 комфорт 1008.1 990.3
18 24.06 штиль 0 10 км 8/0
[Ac trans]
+19.6 +11.5 59 +21 +21 комфорт 1009.4 991.4 +22.6
21 24.06 штиль 0 10 км 9/0
[Ac trans]
+17.1 +12.2 73 +17 +17 по сезону 1010.2 992.1
00 25.06 ЮВ 1 10 км в посл. час ливневой дождь 9/4 600 м
[Cb cap Ac trans]
+15.8 +13.3 85 +16 +16 по сезону 1010.2 992.0
03 25.06 З 2 10 км 10/5 1000 м
[Sc Ac und]
+16.8 +13.3 80 +17 +17 по сезону 1010.5 992.4
06 25.06 ЮЗ 4 10 км {ливн. осадки} 10/10 360 м
[Sc]
+17.8 +14.9 83 +18 +18 по сезону 1010.9 992.8 +15.8 0.0
09 25.06 З 3 10 км в посл. час ливневой дождь 8/5 600 м
[Cb calv Ac trans]
+21.2 +15.3 69 +24 +29 комфорт 1011.1 993.2
12 25.06 СЗ 4 10 км {ливн. осадки} 8/5 1000 м
[Cu med, cong Ac trans]
+23.7 +14.1 55 +26 +29 жарко 1011.6 993.9
15 25.06 СЗ 4 10 км 4/4 1000 м
[Cu med, cong]
+24.3 +12.3 47 +26 +27 жарко 1011.8 994.1
18 25.06 штиль 0 10 км 4/0
[Ac trans]
+22.1 +12.3 54 +25 +25 комфорт 1012.9 995.0 +24.6 0.4
21 25.06 ЮВ 2 10 км ясно +16.9 +12.8 77 +17 +17 по сезону 1013.4 995.2
00 26.06 ЮВ 2 10 км 6/0
[Ac trans]
+15.7 +13.4 86 +16 +16 по сезону 1013.4 995.1
03 26.06 Ю 2 10 км слабый ливневой дождь 9/6 600 м
[Cb cap Ac trans]
+17.1 +14.3 84 +17 +18 по сезону 1013.5 995.3
06 26.06 ЮЗ 3 10 км {ливн. осадки} 8/0
[Ac trans Ci fib]
+23.4 +16.4 65 +28 +34 душно 1012.3 994.6 +14.9 0.0
09 26.06 ЮЗ 6 10 км 6/4 1000 м
[Cu med, cong Ci fib]
+29.7 +15.5 42 +32 +36 душно 1011.4 994.0
12 26.06 ЮЗ 5 10 км слабый ливневой дождь 8/8 600 м
[Cb cap]
+28.3 +15.7 46 +31 +33 душно 1010.7 993.3
15 26.06 ЮЗ 7 10 км {ливн. осадки} 4/3 1000 м
[Cu med, cong Ac lent]
+29.9 +14.3 39 +32 +33 жарко 1009.0 991.7
18 26.06 Ю 3 10 км {ливн. осадки} 5/3 1000 м
[Sc diur, vesp Ac trans]
+26.3 +14.9 49 +29 +29 жарко 1008.8 991.3 +31.1 0.0
21 26.06 ЮЗ 3 10 км гроза без осадков 8/8 600 м
[Cb calv]
+24.7 +14.5 53 +27 +27 жарко 1009.7 992.1
00 27.06 Ю 3 10 км {гроза} 9/0
[Ac trans]
+22.0 +16.3 70 +26 +26 душно 1009.7 991.9
03 27.06 ЮЗ 3 10 км 8/0
[Ac cast]
+21.3 +17.8 80 +25 +26 комфорт 1010.0 992.2
06 27.06 С 1 10 км 8/0
[Ci fib]
+24.2 +18.0 68 +28 +38 душно 1010.5 992.8 +20.5
09 27.06 ЮЗ 4 10 км 8/8 1000 м
[Cu hum]
+28.3 +17.6 52 +32 +35 душно 1010.4 993.0
12 27.06 З 4 10 км {ливн. осадки} 9/8 600 м
[Cb calv Ac trans]
+27.7 +18.7 58 +33 +34 очень
душно
1010.1 992.7
15 27.06 СЗ 3 10 км 6/6 1000 м
[Cu med, cong]
+28.5 +17.7 52 +33 +34 очень
душно
1009.6 992.2
18 27.06 С 3 10 км гроза без осадков 8/5 600 м
[Cb calv Ac trans Ci fib]
+25.0 +17.0 61 +29 +29 душно 1010.9 993.3 +28.8 2
21 27.06 В 1 10 км {гроза, ливн. осадки} 6/3 1000 м
[Sc Ci fib]
+21.4 +17.5 78 +25 +25 комфорт 1011.5 993.7
00 28.06 СЗ 2 10 км {гроза, ливн. осадки} 8/5 1000 м
[Sc Ac trans]
+20.5 +17.4 82 +25 +25 комфорт 1012.1 994.2

 

Местоположение метеостанции Харьков (Харьковская область, Украина): широта 49.97 долгота 36.13 высота над уровнем моря 155 м.

В архиве по умолчанию представлена погода в Харькове за последнюю неделю. Архивные данные за месяц целиком и за предыдущие месяцы, начиная с января 2011 года, Вы можете получить, выбрав интересующий диапазон дат из раскрывающегося списка и нажав кнопку "Ввод!".

Внимание! Время в таблицах - всемирное. Для получения местного времени необходимо прибавить поправку, которая в Харькове равна 2 ч.

Смотрите также архив погоды в соседних городах и на ближайших метеорологических станциях:

Погода в Золочеве (Львовская область, Украина) (39 км)
Погода в Боходухове (Харьковская область, Украина) (50 км)
Погода в Слобожанском (Донецкая область, Украина) (50 км)
Погода в Коломаке (Харьковская область, Украина) (66 км)
Погода в Белгороде (Белгородская область, Россия) (80 км)
Погода в Краснограде (Харьковская область, Украина) (82 км)
Погода в Великом Бурлуке (Харьковская область, Украина) (90 км)
Погода в Готне (Белгородская область, Россия) (96 км)
Погода в Купянске (Харьковская область, Украина) (119 км)
Погода в Лозовой (Харьковская область, Украина) (120 км)

Пояснения к столбцам:

Ветер - указаны скорость ветра в м/с - средняя за 10 мин, порывы в срок и между сроками (в фигурных скобках) и направление, откуда дует ветер: С - северный, СВ - северо-восточный, В - восточный, ЮВ - юго-восточный, Ю - южный, ЮЗ - юго-западный, З - западный, СЗ - северо-западный.
Видимость - горизонтальная дальность видимости в метрах или километрах. При видимости от 1 до 10 км при отсутствии осадков обычно наблюдается дымка, при ухудшении видимости до 1 км и менее - туман. В сухую погоду видимость может ухудшаться дымом, пылью или мглою.
Явления - указаны атмосферные явления, наблюдавшиеся в срок или в последний час перед сроком; фигурными скобками обозначены явления, наблюдавшиеся между сроками (за 1-3 часа до срока); квадратными скобками обозначены град или гололедные отложения с указанием их диаметра в мм.
Облачность - указаны через наклонную черту общая и нижняя облачность в баллах и высота нижней границы облаков в метрах; квадратными скобками обозначены формы облаков: Ci - перистые, Cs - перисто-слоистые, Cc - перисто-кучевые, Ac - высококучевые, As - высокослоистые, Sc - слоисто-кучевые, Ns - слоисто-дождевые, Cu - кучевые, Cb - кучево-дождевые. Подробнее классификацию облаков см. в Атласе облаков (PDF).
T - Температура воздуха - температура, измеренная на высоте 2 м над землей.
Td - Температура точки росы - температура, при понижении до которой содержащийся в воздухе водяной пар достигнет насыщения.
f - Относительная влажность воздуха - влажноcть воздуха, измеренная на высоте 2 м над землей.
Te - Эффективная температура - температура, которую ощущает одетый по сезону человек в тени. Характеристика душности погоды. При расчете учитывается влияние влажности воздуха и скорости ветра на теплоощущения человека.
Tes - Эффективная температура на солнце - температура, которую ощущает человек, с поправкой на солнечный нагрев. Характеристика знойности погоды. Зависит от высоты солнца над горизонтом, облачности и скорости ветра. Ночью, в пасмурную погоду, а также при ветре 12 м/с и более поправка равна нулю.
P - Атмосферное давление - приведенное к уровню моря атмосферное давление.
Po - Атмосферное давление - измеренное на уровне метеостанции атмосферное давление.
Tmin - Минимальная температура - минимум температуры воздуха на высоте 2 м над землей.
Tmax - Максимальная температура - максимум температуры воздуха на высоте 2 м над землей.
R - Количество осадков - Количество выпавших осадков за период времени, мм. При наведении курсора мыши на число - период времени, за который выпало указанное количество осадков.
R24 - Количество осадков - Количество выпавших осадков за 24 часа, мм.
S - Снежный покров - Высота снежного покрова, см. При наведении курсора мыши на число - состояние снежного покрова и степень покрытия местности в баллах.